Showing default

IRIDE-MS2-HEO-2, 64569

Orbit data source: Space-Track

IRIDE-MS2-HEO-2, 64569 is an Italian payload satellite in SSO that was launched on Mon, 23 Jun 2025 UTC via an FALCON 9 launch vehicle from the Air Force Western Test Range (AFWTR). Payload-class satellites include a variety of spacecraft equipped with specific instruments for various scientific and technological missions. These include communications satellites like Starlink; space stations such as the ISS; scientific satellites like the Hubble; Earth observation satellites from companies like Planet Labs, Umbra, and HawkEye 360; GPS; miniature CubeSats for education and research; and military/defense satellites.

Loading next visibility...
Identifier
64569, 2025-135AT
Orbit
SSO
Country
Flag of ITIT
Related business
Manufacturer
ArgoTec
Mission
Operational Civil Imaging
Bus & Motor
HAWK, Unknown motor
Mass
65 kg wet, 65 kg dry
Launch date (UTC)
2025-06-23 (7 months ago)
Launch vehicle
FALCON 9
Launch site
Air Force Western Test Range (AFWTR)
Object type
Payload
Rocket body
Debris
Shape & HBR
Box + 2 Pan, 3.0 m
Radar Cross Section
0.683 m², Medium (>0.1 m² and < 1m²)

Expand to show TLE details & history
Last TLE update: 9 hours ago

TLE from 9 hours ago
0 IRIDE-MS2-HEO-2
1 64569U 25135AT  26035.86211586  .00004507  00000-0  43879-3 0  9999
2 64569  97.7613 151.7598 0003028  85.8721 274.2844 14.93014833 34133
Epoch: 2026-02-04T20:41Z
TLE epoch observation values (Epoch: 2026-02-04T20:41:26.810Z)
Latitude
-0.00006°
Longitude
66.37549°
Altitude
591.428 km
Speed
7.564 km/s
True Right ascension
10h 07m 02s
True Declination
0° 00' 00"
Sunlit
Object was in full shadow at epoch
Visualization orbit readout
Latitude
Unknown
Longitude
Unknown
Altitude
Unknown
Speed
Unknown
Apparent Right ascension
Unknown
Apparent Declination
Unknown
Sunlit
N/A
Visualization observer readout
Local Sidereal Time
07:51:41
Azimuth
Unknown
Elevation
Unknown
Doppler factor
Unknown
Orbital elements
Apogee altitude
587.667 km
Perigee altitude
583.45 km
Semi-major axis
6,963.696 km
Eccentricity
0.0003
Inclination
97.7613°
RAAN
151.7598°
Arg. of periapsis
85.8721°
True anomaly
274.2498°
Mean anomaly
274.2844°
Eccentric anomaly
274.2671°
Mean motion
3.73494 °/min
Orbital period
96.39 mins
BSTAR
0.00043879
Loading maneuver chart data...
Computing Atmospheric mass density...
Loading historical data...
Loading historical data...
Loading historical data...
Loading historical data...
Loading historical data...
Loading historical data...
Loading historical data...

Documentation

Showing up to 5 results
|